Dewpoint
-0 -0 1 0 -0 -2 -2 0 2 1 -2 3 4 4 6 12 13 13 13 14 13 13 13 14 15 15 15 11 12 13 12 7 8 7 6 11 10 14 14 13 14 14 14 14
1 1 -3 -3 -3 -2 -3 -2 2 -1 -5 -2 -1 3 6 11 12 13 13 14 13 13 13 14 15 15 14 10 12 13 12 8 8 7 6 8 10 12 13 13 14 14 14 14
-2 -5 -4 -2 -2 -2 -3 -3 -2 -0 -4 3 3 4 10 11 12 13 13 13 13 13 13 13 14 13 14 12 12 12 10 9 10 9 8 7 8 13 14 13 13 14 15 15
-5 -5 -3 -2 -2 -2 -3 -6 -5 -1 0 2 6 6 10 11 13 13 13 13 13 13 13 13 13 14 13 11 12 12 11 11 10 12 9 10 12 13 14 14 13 14 15 15
-3 -3 -2 -1 -3 -2 -4 -6 -4 -4 0 -0 0 4 3 10 13 13 12 13 13 12 13 13 13 11 12 11 12 12 12 12 12 12 11 10 13 14 14 14 12 13 14 15
-6 -6 -4 -2 -3 -3 -4 -4 -4 -3 -2 2 1 2 3 8 11 11 11 12 13 13 13 13 13 12 10 11 12 12 12 12 12 12 12 12 12 13 14 14 14 14 14 13
-4 -6 -4 -5 -2 -3 -4 -3 -1 0 1 2 -1 0 1 0 5 7 10 11 11 12 13 13 13 13 12 11 10 11 11 12 12 12 13 13 12 13 13 14 14 14 14 12
-2 -2 -5 -6 -4 -3 -2 -5 -5 -1 -2 -3 -1 1 0 -2 -4 4 4 7 10 11 12 12 13 12 11 10 10 10 10 10 11 12 12 12 13 13 13 13 13 14 14 12
-3 -4 -7 -7 -7 -6 -3 -2 -8 -6 -3 -3 -4 -2 -3 -1 -2 -1 6 6 8 10 11 12 12 11 11 10 10 10 9 7 9 10 11 12 12 12 13 13 13 14 14 12
-2 -1 -5 -7 -8 -7 -6 -6 -3 -4 -2 -3 -5 -2 -3 1 -0 1 3 6 7 8 9 10 12 12 11 10 9 10 9 8 6 7 9 10 11 11 12 12 13 13 14 14
1 -2 -1 -5 -5 -5 -5 -4 -6 -6 -6 -6 -6 -8 -3 1 2 0 1 3 4 5 6 7 9 10 11 11 11 10 10 9 8 7 8 9 9 10 12 12 12 12 13 14
2 -1 1 -2 -5 -7 -7 -5 -4 -3 1 -4 -6 -7 -5 -3 -1 0 -0 -0 2 4 5 6 6 8 11 11 11 10 9 9 9 7 7 8 8 8 9 11 11 12 12 13
1 2 2 0 -2 -4 -4 -5 -5 -6 -6 1 -4 -7 -7 -4 -3 -4 -1 0 2 0 5 4 7 7 7 8 9 10 9 7 8 9 8 8 8 8 8 9 10 11 12 12
1 2 3 1 1 1 1 -2 -4 -5 -1 -2 -1 -5 -6 -6 -5 -4 -4 -3 -1 0 -3 -0 3 5 7 8 9 9 8 8 8 8 9 9 8 8 7 8 9 10 11 12
-0 1 1 0 -0 0 1 0 -1 -1 -2 -0 -3 -1 -3 -5 -3 -3 -3 -1 -2 2 2 -3 -2 -2 5 7 7 8 8 8 9 8 8 7 7 8 8 8 8 9 10 11
-1 -1 2 -1 -2 -2 0 -0 -1 -2 -2 -2 -3 -2 -5 -5 -6 -5 -6 -7 -3 -3 -6 -4 -7 -2 3 6 7 7 7 7 7 7 6 7 8 8 8 8 8 9 9 10
0 -0 0 -0 -2 -1 1 -1 -1 -1 -3 -3 -1 -2 -4 -3 -2 -1 -3 -3 -2 -7 -7 -10 -5 -7 -6 -2 5 7 7 7 7 7 7 7 8 8 8 9 9 8 9 10
-0 2 3 -2 0 2 -2 -3 1 -2 -4 -4 -4 -4 -4 -3 -4 -4 -8 -5 -5 -10 -11 -12 -12 -11 -12 -7 2 6 7 7 7 7 7 8 8 8 10 11 9 9 9 9
-2 -0 -1 -2 -0 -1 -2 -2 7 7 2 3 -1 -3 -5 -6 -5 -2 -4 -7 -9 -10 -9 -9 -11 -12 -13 -11 -7 4 7 7 7 7 7 7 7 8 9 9 9 9 11 11
-1 -1 -0 -1 -2 -0 -1 -2 -1 8 5 9 9 7 5 4 -0 -2 -5 -7 -8 -9 -8 -9 -10 -12 -12 -12 -4 3 5 7 7 7 6 7 7 8 8 7 9 10 11 11
3 1 1 -0 1 -2 -3 3 9 11 5 9 11 11 11 11 4 -2 -3 -3 -4 -8 -9 -10 -11 -12 -10 -9 -3 -0 4 5 5 6 6 6 8 8 9 12 14 14 16 17
4 4 4 1 0 0 -4 5 7 8 9 10 11 12 12 12 12 12 1 -0 -2 -6 -6 -8 -10 -10 -9 -9 -7 -0 4 2 5 6 6 7 8 10 12 12 13 14 15 16
4 1 3 0 -2 -3 -2 3 8 10 10 10 11 12 13 13 13 13 12 9 5 -3 -1 -5 -8 -8 -7 -4 1 2 4 5 5 6 6 8 9 10 12 13 14 16 15 16
-0 0 4 3 0 2 0 1 5 8 9 10 12 13 13 14 14 15 13 10 13 8 2 0 -0 2 2 3 4 5 7 7 7 8 9 9 9 10 12 14 17 18 18 17
-0 0 2 2 1 -0 2 2 5 9 9 10 12 13 14 15 15 12 13 16 15 14 10 8 7 11 10 11 9 8 7 8 9 10 10 11 12 12 13 15 17 18 17 18
-0 1 2 1 -1 2 3 4 7 8 10 12 12 13 14 15 16 16 17 18 19 19 17 15 14 13 13 13 12 12 12 12 11 11 11 11 13 13 14 14 16 18 18 18
Wind_Speed
18 12 22 24 17 13 9 7 13 9 6 6 13 16 13 23 27 27 30 32 32 35 30 29 30 30 31 35 33 29 28 29 30 31 31 29 30 27 24 21 17 17 14 12
8 25 20 14 17 19 17 17 17 9 6 4 7 11 10 17 27 32 34 34 35 29 30 31 32 32 35 38 37 34 31 31 31 33 33 34 30 28 26 23 21 18 15 14
24 6 20 17 15 19 23 23 18 8 4 5 8 12 6 13 19 24 29 31 28 34 35 33 34 38 37 39 40 38 35 34 32 32 32 34 33 31 29 28 27 25 20 18
21 20 22 21 23 21 23 20 21 17 9 10 4 13 8 13 18 21 28 31 34 34 33 32 35 36 41 42 39 39 38 36 34 33 36 35 34 32 29 27 27 26 22 21
18 24 21 25 29 20 17 14 17 19 14 12 15 9 16 8 15 22 27 34 36 38 37 37 38 44 45 44 42 41 39 39 36 37 38 37 36 33 29 25 24 23 25 26
18 10 22 18 20 22 11 10 8 3 9 16 22 14 16 12 19 18 25 33 34 36 38 38 38 38 42 42 42 43 44 42 41 40 40 40 38 37 35 31 27 24 23 23
20 13 15 18 17 20 20 17 8 10 11 14 14 13 19 9 17 19 21 33 37 39 39 40 38 37 42 44 47 47 47 46 45 44 43 42 40 38 37 33 29 27 25 24
18 15 20 19 19 13 28 23 9 15 16 14 7 15 13 17 24 22 26 29 32 33 38 41 44 46 50 49 48 49 49 47 47 46 47 44 43 41 37 33 33 31 28 25
19 18 13 20 18 20 19 25 23 12 1 5 12 15 12 11 17 24 24 25 26 32 37 41 44 49 53 53 51 50 49 46 47 46 45 47 46 44 41 35 31 33 29 27
5 7 13 27 18 22 14 19 10 13 14 15 8 10 14 18 20 19 20 25 28 31 33 37 41 45 51 54 53 52 49 49 45 46 44 44 45 46 43 39 35 32 32 29
2 6 3 15 23 23 11 20 13 12 12 10 9 11 7 16 19 22 23 31 32 31 33 36 39 44 48 49 49 53 54 52 50 47 46 44 45 46 46 44 39 35 31 32
4 3 11 13 12 21 24 19 26 12 12 15 8 8 2 12 11 15 22 27 28 27 30 29 32 36 37 46 48 52 52 54 54 50 47 46 44 43 45 46 43 39 36 34
6 3 11 10 9 9 24 22 24 21 14 19 12 7 9 10 8 14 14 17 19 23 23 28 25 31 39 44 48 49 50 50 50 52 52 50 49 48 47 47 45 44 41 38
4 1 9 14 9 4 5 14 23 24 17 17 22 17 9 11 9 13 19 22 15 16 21 20 20 27 34 40 44 46 46 46 46 46 47 51 51 50 47 46 46 46 44 42
4 2 5 6 8 8 10 13 11 19 25 23 21 24 19 15 13 16 14 13 18 15 17 21 20 23 29 35 41 43 44 45 45 45 45 45 44 46 47 48 46 45 48 46
6 2 3 10 10 12 14 15 15 17 19 18 22 25 8 17 28 25 27 29 25 27 23 23 21 18 24 32 37 40 43 45 45 45 44 43 43 43 44 46 46 45 47 49
4 2 3 7 8 13 15 21 20 17 16 16 22 18 16 19 13 21 28 29 27 25 21 21 21 20 19 21 29 37 40 43 45 46 43 45 45 45 45 44 45 46 48 49
5 4 3 5 3 11 6 6 8 15 19 21 22 19 16 20 27 30 34 35 32 36 34 34 36 33 31 27 26 29 36 40 42 43 43 44 45 45 46 44 44 44 47 49
18 9 4 5 12 16 22 8 2 3 13 9 17 20 20 29 29 26 28 38 43 45 43 42 36 31 29 30 31 32 35 37 38 40 41 42 43 44 45 45 44 45 47 47
14 14 7 5 9 13 2 9 8 4 13 4 5 6 7 12 15 13 25 36 42 46 47 44 35 34 29 28 29 30 34 36 37 37 36 39 40 43 44 44 45 45 47 46
5 7 16 14 10 8 10 3 6 8 2 7 6 10 12 9 13 22 26 22 28 34 33 29 31 29 23 25 26 29 31 36 34 34 34 35 36 38 40 41 42 41 40 32
6 7 6 11 10 20 12 8 9 5 7 12 13 13 16 20 27 30 39 35 27 25 24 26 27 26 27 25 25 25 30 31 32 34 35 36 33 33 32 34 36 36 31 28
6 11 4 9 7 14 19 18 23 14 18 16 19 18 20 24 31 29 29 27 21 24 20 18 24 26 24 19 17 21 29 29 31 27 25 25 25 23 26 29 28 27 26 34
6 10 7 10 11 18 33 32 25 21 24 26 22 25 22 28 30 31 26 19 15 18 16 15 17 19 17 13 13 13 15 19 18 14 9 11 16 20 21 22 21 21 24 29
11 8 8 13 20 28 31 30 25 22 25 25 22 26 25 24 26 22 18 16 16 16 17 18 19 19 17 14 10 8 9 12 13 14 14 14 16 18 20 21 21 22 23 23
17 19 12 11 13 10 21 22 23 27 25 20 19 24 15 12 11 14 18 23 25 25 26 25 26 24 23 20 19 16 13 11 10 10 10 10 12 14 16 17 19 18 17 16
Wind_Direction
192 196 210 213 211 224 219 236 239 237 238 223 226 245 218 196 202 197 192 194 200 205 203 206 209 209 210 211 211 212 214 213 211 210 209 209 210 212 219 225 224 229 230 238
176 222 210 207 207 217 225 234 242 257 260 279 251 259 227 197 207 201 196 197 204 202 200 204 208 208 212 215 215 215 216 215 213 214 212 214 216 222 227 226 223 224 229 236
200 189 204 197 200 208 220 223 219 232 337 240 255 255 209 214 214 208 212 211 207 202 201 205 206 211 213 217 218 215 212 213 214 216 214 216 220 226 229 230 230 231 233 242
220 211 192 205 217 206 222 219 237 244 258 250 229 265 213 208 206 208 210 209 211 210 207 206 210 212 216 219 218 219 216 216 216 216 215 215 219 225 231 236 237 236 237 241
202 201 197 211 210 204 227 207 221 239 247 263 236 250 248 207 213 216 212 214 212 212 208 208 209 216 216 219 222 222 222 220 220 219 220 222 225 232 237 240 241 238 243 246
207 204 194 206 209 201 189 173 193 210 241 239 239 233 249 210 216 216 217 221 217 214 213 214 216 216 220 223 223 226 226 226 225 225 225 227 230 233 236 236 237 238 242 243
202 191 201 192 184 200 196 181 186 218 219 238 220 229 240 232 218 218 210 218 218 214 214 216 216 216 222 223 227 226 228 228 228 229 230 232 233 235 239 239 240 239 238 238
201 211 195 190 202 187 201 199 205 214 233 244 195 237 237 223 235 232 233 227 224 217 215 217 218 221 230 230 230 231 231 227 228 231 231 233 235 236 237 238 239 239 237 241
204 221 191 179 194 184 196 211 216 256 151 262 223 247 264 239 224 217 221 226 220 216 217 220 221 223 228 233 234 231 232 231 229 230 233 235 236 236 237 236 236 239 240 240
191 219 202 195 189 201 186 180 185 215 232 238 219 247 234 198 213 212 215 214 223 223 220 224 223 221 225 231 235 238 235 235 232 230 231 235 238 238 237 237 236 235 237 236
329 232 132 171 204 190 181 189 206 202 221 227 247 245 208 219 213 213 216 214 217 220 224 224 224 226 226 227 230 236 238 236 234 233 233 234 239 241 239 239 238 235 235 235
28 269 220 203 189 214 203 196 197 204 187 225 259 252 263 228 221 228 226 225 229 228 228 229 229 226 220 223 223 233 235 238 235 233 233 233 234 239 241 239 240 238 235 235
352 223 201 227 214 199 218 215 207 218 233 217 210 213 250 253 263 234 239 241 238 243 241 243 232 225 229 228 226 228 232 233 236 233 232 235 238 239 241 242 239 239 236 235
329 329 257 223 230 22 226 219 212 213 221 225 226 235 227 267 252 259 262 267 259 248 240 235 239 240 235 231 230 229 231 231 232 234 233 234 236 239 241 244 241 237 237 235
8 301 327 305 299 293 270 262 243 234 233 230 239 237 232 246 279 276 276 276 282 254 238 231 234 246 241 233 233 233 234 231 229 232 235 237 238 238 240 242 241 237 236 235
357 283 305 301 293 284 275 255 251 244 242 254 258 260 260 240 238 251 268 281 282 280 257 244 252 234 240 238 235 234 233 231 231 235 240 241 240 240 238 239 240 239 236 235
312 288 252 258 304 308 271 244 241 243 243 240 242 251 254 249 240 247 247 252 253 253 265 267 245 254 261 255 242 235 234 233 233 236 240 241 242 242 241 239 238 238 236 235
248 219 227 266 267 242 271 316 291 247 247 241 247 244 247 251 247 239 250 249 258 265 271 267 267 266 268 259 246 241 236 236 237 237 237 241 243 244 244 241 240 240 237 235
218 221 226 228 227 279 287 252 211 304 260 293 266 246 239 245 258 251 244 251 256 259 262 265 267 272 268 259 252 240 232 235 236 238 240 243 245 245 245 245 244 241 240 239
206 227 239 196 238 236 296 249 262 184 267 108 337 291 273 295 250 258 247 252 256 255 256 261 260 262 269 248 248 244 238 234 238 240 244 245 243 245 246 249 247 243 242 242
165 209 221 229 247 258 270 312 135 216 251 323 303 299 295 268 258 265 265 268 274 279 259 250 252 252 252 246 252 255 243 236 241 247 250 252 253 252 251 251 251 250 248 244
203 191 202 227 242 240 268 275 231 347 320 316 315 306 287 282 280 270 265 270 275 273 263 245 237 232 242 257 253 245 240 239 239 244 250 254 254 253 250 251 251 249 246 252
238 223 237 219 218 265 291 287 298 314 298 308 302 303 291 287 278 272 266 267 261 262 267 248 232 231 238 242 241 242 233 228 233 246 256 249 246 251 251 251 247 238 243 236
268 261 240 267 256 264 272 284 298 289 300 301 300 297 293 282 276 269 260 244 223 229 236 214 201 197 197 205 212 207 214 225 229 236 242 244 249 248 243 240 235 225 218 229
258 285 265 269 277 277 276 270 294 289 289 287 289 292 289 281 271 242 211 192 178 172 163 167 165 151 141 140 143 155 179 196 204 210 214 212 212 219 226 223 222 229 237 238
242 240 231 252 251 284 280 292 313 296 289 284 288 283 293 246 214 180 155 147 135 131 127 126 124 121 119 123 123 123 124 129 144 169 184 194 200 204 212 223 229 232 232 248
Height
1478 1479 1472 1476 1482 1482 1485 1486 1482 1476 1474 1475 1476 1474 1477 1483 1487 1491 1495 1500 1504 1505 1513 1520 1524 1528 1532 1535 1539 1542 1545 1549 1554 1557 1560 1564 1566 1570 1573 1575 1577 1579 1581 1583
1476 1463 1466 1474 1480 1484 1485 1485 1482 1478 1476 1477 1472 1472 1472 1477 1477 1482 1486 1493 1496 1505 1509 1512 1517 1522 1525 1529 1532 1536 1540 1545 1549 1552 1557 1560 1564 1567 1570 1573 1575 1577 1578 1580
1453 1452 1464 1470 1475 1479 1479 1480 1478 1480 1477 1474 1474 1473 1474 1473 1478 1482 1485 1489 1495 1495 1499 1505 1510 1514 1519 1522 1525 1529 1533 1538 1543 1548 1553 1556 1560 1562 1565 1568 1570 1573 1575 1578
1455 1455 1458 1464 1466 1471 1475 1473 1477 1481 1486 1489 1472 1480 1472 1466 1472 1474 1477 1481 1484 1490 1494 1500 1504 1508 1511 1514 1520 1525 1529 1533 1538 1543 1547 1550 1553 1556 1560 1564 1567 1569 1572 1574
1441 1446 1453 1458 1453 1464 1467 1468 1474 1476 1480 1481 1474 1481 1457 1463 1467 1465 1468 1470 1476 1479 1484 1490 1494 1498 1502 1508 1513 1519 1525 1529 1534 1538 1542 1546 1549 1552 1558 1560 1562 1565 1567 1570
1433 1440 1445 1443 1450 1457 1462 1468 1474 1478 1476 1485 1467 1474 1453 1457 1451 1453 1458 1463 1468 1473 1477 1482 1486 1491 1496 1503 1508 1513 1517 1523 1528 1531 1536 1539 1543 1547 1551 1554 1557 1559 1561 1563
1434 1436 1436 1440 1449 1454 1458 1465 1484 1494 1487 1470 1454 1471 1449 1439 1440 1439 1445 1451 1455 1461 1469 1474 1480 1484 1487 1493 1497 1503 1508 1514 1520 1525 1529 1533 1538 1542 1545 1550 1553 1556 1557 1558
1431 1443 1427 1426 1430 1441 1448 1450 1457 1481 1468 1463 1461 1454 1436 1430 1435 1437 1440 1442 1447 1455 1460 1464 1469 1473 1477 1482 1488 1493 1498 1505 1511 1516 1521 1526 1531 1535 1539 1544 1547 1550 1552 1555
1420 1420 1413 1418 1423 1429 1443 1445 1439 1454 1466 1465 1443 1432 1428 1426 1424 1428 1430 1435 1440 1443 1449 1453 1457 1463 1468 1473 1477 1483 1488 1495 1501 1507 1514 1518 1523 1528 1531 1536 1540 1545 1548 1551
1409 1420 1407 1412 1419 1422 1428 1436 1460 1453 1471 1471 1442 1443 1423 1418 1418 1418 1422 1427 1429 1433 1440 1444 1447 1452 1457 1462 1468 1474 1480 1485 1491 1498 1505 1509 1514 1519 1524 1529 1533 1537 1541 1545
1417 1411 1413 1409 1410 1413 1429 1430 1432 1435 1439 1447 1449 1423 1407 1408 1407 1409 1410 1414 1419 1424 1427 1432 1437 1441 1446 1453 1458 1462 1469 1476 1483 1489 1495 1501 1505 1510 1515 1520 1525 1530 1535 1538
1425 1417 1409 1408 1400 1402 1407 1413 1419 1433 1448 1437 1429 1419 1399 1400 1402 1404 1404 1408 1414 1418 1421 1425 1429 1433 1439 1442 1448 1451 1458 1464 1471 1479 1485 1490 1496 1501 1505 1510 1515 1521 1526 1531
1427 1422 1416 1412 1405 1404 1403 1405 1409 1413 1414 1427 1439 1417 1395 1398 1401 1403 1404 1406 1410 1413 1416 1419 1424 1425 1427 1430 1434 1441 1447 1452 1459 1468 1474 1480 1485 1490 1494 1499 1505 1511 1516 1521
1430 1427 1415 1400 1403 1419 1417 1406 1405 1409 1417 1413 1404 1407 1399 1395 1396 1399 1401 1402 1406 1408 1411 1413 1415 1416 1418 1423 1427 1432 1436 1444 1451 1455 1462 1468 1473 1477 1483 1489 1495 1500 1505 1511
1434 1430 1429 1425 1424 1422 1422 1419 1415 1410 1400 1397 1399 1398 1399 1399 1397 1396 1398 1398 1399 1403 1406 1407 1409 1409 1411 1416 1419 1423 1429 1436 1442 1446 1451 1454 1459 1466 1473 1477 1482 1488 1494 1499
1442 1433 1433 1426 1420 1416 1416 1411 1408 1406 1405 1402 1398 1394 1391 1395 1397 1397 1395 1395 1395 1396 1398 1400 1403 1405 1405 1407 1410 1415 1420 1424 1431 1436 1439 1445 1451 1455 1459 1465 1470 1477 1482 1487
1445 1438 1433 1427 1420 1415 1408 1394 1396 1398 1395 1396 1396 1392 1391 1391 1395 1394 1394 1394 1393 1392 1393 1394 1396 1398 1399 1400 1402 1407 1410 1417 1422 1427 1432 1437 1440 1444 1448 1454 1460 1464 1469 1476
1444 1442 1435 1426 1426 1425 1383 1381 1385 1383 1383 1382 1382 1384 1385 1384 1384 1386 1387 1387 1386 1387 1387 1389 1391 1392 1393 1395 1396 1399 1405 1409 1414 1419 1424 1428 1432 1435 1440 1446 1448 1453 1457 1462
1441 1439 1431 1426 1417 1399 1388 1386 1387 1387 1381 1378 1374 1375 1376 1376 1377 1376 1381 1381 1380 1380 1380 1381 1384 1385 1386 1387 1389 1392 1396 1401 1406 1410 1415 1418 1421 1427 1431 1434 1437 1441 1446 1450
1438 1441 1436 1423 1417 1406 1380 1381 1383 1391 1388 1384 1383 1380 1379 1378 1373 1369 1372 1371 1370 1371 1372 1374 1375 1377 1378 1380 1382 1385 1389 1394 1397 1400 1403 1408 1415 1419 1421 1423 1427 1432 1435 1438
1438 1441 1434 1428 1418 1394 1385 1386 1389 1393 1381 1380 1380 1379 1379 1378 1372 1366 1362 1364 1364 1365 1364 1365 1367 1369 1371 1373 1376 1378 1381 1385 1387 1393 1398 1401 1405 1409 1415 1421 1426 1430 1436 1444
1424 1429 1430 1428 1418 1412 1390 1386 1389 1380 1378 1377 1376 1376 1374 1373 1367 1364 1356 1356 1358 1358 1357 1356 1358 1362 1364 1366 1368 1370 1372 1377 1384 1387 1391 1395 1399 1404 1407 1411 1415 1421 1425 1437
1422 1416 1412 1411 1398 1393 1391 1391 1386 1387 1382 1378 1375 1372 1369 1364 1359 1357 1353 1352 1353 1353 1352 1349 1351 1354 1357 1360 1362 1363 1366 1371 1376 1380 1384 1388 1393 1396 1402 1404 1407 1413 1418 1427
1416 1414 1412 1407 1395 1394 1391 1385 1387 1386 1380 1376 1373 1366 1362 1355 1351 1347 1346 1348 1346 1347 1345 1346 1347 1350 1352 1355 1357 1359 1362 1367 1372 1375 1380 1383 1387 1392 1396 1399 1402 1404 1409 1413
1416 1413 1407 1402 1398 1392 1387 1386 1385 1380 1377 1373 1370 1363 1355 1349 1343 1340 1341 1341 1340 1341 1341 1343 1345 1349 1348 1352 1354 1355 1359 1362 1367 1372 1375 1378 1382 1385 1388 1391 1393 1397 1400 1403
1407 1401 1399 1386 1387 1388 1381 1383 1383 1381 1376 1371 1364 1357 1352 1345 1341 1339 1339 1339 1339 1341 1341 1345 1344 1347 1348 1351 1353 1356 1359 1361 1364 1367 1370 1373 1377 1380 1384 1385 1388 1393 1396 1398